This is the latest recevied weather packets stored in our database for station/object W0AKO. If no packets are shown the sender has not sent any weather packets the latest 1 day(s).
| Time | Temp. | Humidity | Pressure | Rain* | Wind** | Luminosity | Snow |
|---|---|---|---|---|---|---|---|
| 1778037825 | 20° C | 10% | 1011.6 hPa | 0 mm | - | 0 W/m² | - |
| 1778037522 | 20° C | 10% | 1011.6 hPa | 0 mm | - | 0 W/m² | - |
| 1778036917 | 20.56° C | 10% | 1011.1 hPa | 0 mm | - | 0 W/m² | - |
| 1778036615 | 20.56° C | 10% | 1011.3 hPa | 0 mm | - | 0 W/m² | - |
| 1778036311 | 20.56° C | 10% | 1011 hPa | 0 mm | - | 0 W/m² | - |
| 1778036007 | 20.56° C | 10% | 1010.9 hPa | 0 mm | - | 0 W/m² | - |
| 1778035705 | 20.56° C | 10% | 1010.8 hPa | 0 mm | - | 0 W/m² | - |
| 1778035098 | 20.56° C | 10% | 1010.7 hPa | 0 mm | - | 0 W/m² | - |
| 1778034795 | 20.56° C | 10% | 1010.7 hPa | 0 mm | - | 0 W/m² | - |
| 1778034491 | 20.56° C | 10% | 1010.6 hPa | 0 mm | - | 0 W/m² | - |
| 1778034189 | 20.56° C | 10% | 1010.7 hPa | 0 mm | - | 3 W/m² | - |
| 1778033887 | 20.56° C | 10% | 1010.5 hPa | 0 mm | - | 5 W/m² | - |
| 1778033584 | 20.56° C | 10% | 1010.6 hPa | 0 mm | - | 7 W/m² | - |
| 1778032676 | 20.56° C | 10% | 1010.3 hPa | 0 mm | - | 16 W/m² | - |
| 1778032373 | 21.11° C | 10% | 1010.2 hPa | 0 mm | - | 19 W/m² | - |
| 1778031463 | 21.67° C | 10% | 1009.9 hPa | 0 mm | - | 36 W/m² | - |
| 1778030857 | 21.11° C | 10% | 1009.9 hPa | 0 mm | - | 28 W/m² | - |
| 1778030554 | 21.67° C | 10% | 1009.6 hPa | 0 mm | - | 39 W/m² | - |
| 1778029947 | 21.67° C | 10% | 1010.1 hPa | 0 mm | - | 38 W/m² | - |
| 1778029646 | 22.22° C | 10% | 1009.7 hPa | 0 mm | - | 103 W/m² | - |
| 1778029343 | 22.22° C | 10% | 1009.7 hPa | 0 mm | - | 95 W/m² | - |
| 1778029040 | 22.78° C | 10% | 1009.9 hPa | 0 mm | - | 42 W/m² | - |
| 1778027826 | 22.22° C | 10% | 1009.7 hPa | 0 mm | - | 164 W/m² | - |
| 1778027523 | 22.78° C | 10% | 1009.6 hPa | 0 mm | - | 139 W/m² | - |
| 1778026915 | 22.78° C | 10% | 1009.6 hPa | 0 mm | - | 205 W/m² | - |
* Rain latest hour (hover to see other rain measurements)
** Current wind speed in m/s (hover to see current wind gust speed)